Home   Weather   Providence   Past weeks

Flag for USA Past Weather in Providence, Rhode Island, USA — Yesterday and Last 2 Weeks

Now
54 °F

Clear.


Feels Like: 52 °F
Forecast: 46 / 65 °F
Wind: 8 mph from Northwest

Location: Green State Airport

Current Time: Sep 25, 2016 at 1:39:56 AM

Latest Report: Sep 25, 2016 at 12:51 AM


Visibility: 10 mi

Pressure: 30.10 "Hg

Humidity: 53%

Dew Point: 37 °F

Location of ProvidenceLocation

Past Weather in Providence — Graph

°F

Providence Temperature Yesterday

Maximum temperature yesterday: 68 °F (at 1:51 PM)
Minimum temperature yesterday: 52 °F (at 11:51 PM)
Average temperature yesterday: 60 °F

High & Low Weather Summary for the Past Weeks

 TemperatureHumidityPressure
High90 °F (Sep 14, 2:51 PM)97% (Sep 21, 12:51 AM)30.37 "Hg (Sep 21, 12:51 AM)
Low51 °F (Sep 16, 3:51 AM)24% (Sep 21, 3:51 PM)29.87 "Hg (Sep 11, 7:51 AM)
Average69 °F70%30.12 "Hg
* Reported Sep 9 11:51 PM — Sep 24 11:51 PM, Providence, Weather by CustomWeather, © 2016

Note: Actual official high and low records may vary slightly from our data, if they occured in-between our weather recording intervals... More about our weather records

Advertising

Providence Weather History for the Previous 24 Hours

Scroll right to see more
 ConditionsComfort  
Time TempWeatherWind HumidityBarometerVisibility
11:51 PM
Sat, Sep 24
52 °FClear.3 mph66%30.11 "Hg10 mi
10:51 PM54 °FClear.6 mph59%30.12 "Hg10 mi
9:51 PM57 °FClear.7 mph53%30.12 "Hg10 mi
8:51 PM58 °FPassing clouds.6 mph51%30.11 "Hg10 mi
7:51 PM60 °FPassing clouds.8 mph47%30.10 "Hg10 mi
6:51 PM62 °FClear.8 mph39%30.08 "Hg10 mi
5:51 PM65 °FPassing clouds.10 mph34%30.07 "Hg10 mi
4:51 PM68 °FPassing clouds.10 mph32%30.06 "Hg10 mi
3:51 PM68 °FPassing clouds.9 mph32%30.06 "Hg10 mi
2:51 PM66 °FPassing clouds.12 mph39%30.07 "Hg10 mi
1:51 PM68 °FPartly sunny.5 mph38%30.08 "Hg10 mi
12:51 PM65 °FPartly sunny.14 mph40%30.10 "Hg10 mi
11:51 AM67 °FPartly sunny.13 mph41%30.11 "Hg10 mi
10:51 AM64 °FBroken clouds.14 mph49%30.11 "Hg10 mi
9:51 AM62 °FPartly sunny.12 mph60%30.11 "Hg10 mi
8:51 AM60 °FScattered clouds.10 mph67%30.11 "Hg10 mi
7:51 AM57 °FPartly sunny.12 mph81%30.11 "Hg10 mi
6:51 AM57 °FPartly sunny.12 mph81%30.09 "Hg10 mi
5:51 AM57 °FOvercast.10 mph83%30.09 "Hg10 mi
4:51 AM57 °FOvercast.8 mph87%30.08 "Hg10 mi
3:51 AM57 °FOvercast.8 mph87%30.07 "Hg10 mi
2:51 AM56 °FOvercast.10 mph90%30.07 "Hg10 mi
1:51 AM57 °FLight rain. Mostly cloudy.9 mph90%30.08 "Hg10 mi
Weather by CustomWeather, © 2016

See weather overviewHow to use our weather pages